Zurück zum Katalog

ARIANE 5 DEB

SPELTRA

AktivHEO
NORAD 25026·DEBRIS·🇫🇷 France

Gestartet Oct 30, 1997 von Guiana Space Centre

Loading…

Nächste Überflüge (nächste 24 Stunden)

TLE

AktuellSource: Space-Track

Epoche: Sep 14, 2026, 22:15 UTC

1 25026U 97066D   26257.92737410 -.00000106  00000-0 -82239-5 0  9996
2 25026   7.8187 306.3208 6527760 217.7167  56.1064  3.08322885325229

Verfolge ARIANE 5 DEB in Echtzeit mit AllMySat

Download on the App Store